Vorticity
nan nan nan nan nan nan nan nan nan nan nan nan nan nan nan nan nan nan nan nan nan nan nan nan nan nan nan nan nan nan nan nan nan nan nan nan nan nan nan nan nan nan nan nan nan nan nan nan nan nan nan nan nan nan nan nan nan nan nan nan nan nan nan nan nan nan nan nan nan nan nan nan nan nan nan nan nan nan nan nan nan nan nan nan nan nan nan nan nan nan nan nan nan nan nan nan nan nan nan nan nan nan nan
nan 4 4 4 4 5 5 6 6 6 6 6 5 5 6 6 6 6 6 6 6 6 6 6 6 6 6 6 6 6 7 7 7 7 7 7 7 7 8 7 7 6 5 5 5 5 14 20 16 9 8 9 9 9 5 5 7 8 8 8 4 1 -6 -7 -0 4 5 5 5 4 4 5 6 7 7 8 8 7 5 3 3 3 3 3 4 5 12 21 25 27 25 20 17 16 14 12 9 6 6 6 6 6 nan
nan 4 4 4 5 5 6 6 6 6 5 6 6 5 5 6 6 6 6 6 6 6 6 7 7 6 6 6 6 6 7 7 7 7 7 7 7 8 9 9 8 7 6 5 5 6 14 18 17 12 9 9 9 7 5 7 8 7 8 7 3 -0 -8 -5 2 4 5 5 4 4 4 5 6 6 8 8 8 7 6 4 4 3 3 3 3 3 6 11 16 20 23 24 24 24 22 18 13 9 6 5 6 6 nan
nan 5 4 5 5 6 6 6 6 6 6 6 6 6 6 6 6 6 6 6 6 6 7 7 7 7 6 6 6 6 7 7 7 7 7 7 8 9 9 9 9 8 7 6 7 13 18 15 13 12 10 8 9 10 9 7 6 7 9 7 2 -4 -8 -2 3 5 5 4 4 4 4 5 6 6 7 8 8 8 7 5 4 3 3 3 3 3 3 5 8 11 15 18 20 25 29 28 24 16 7 5 6 6 nan
nan 5 5 5 5 6 6 6 6 6 6 6 6 6 6 6 6 6 6 6 6 6 7 7 7 6 6 6 6 6 7 7 7 7 7 8 9 10 10 10 10 9 8 7 8 15 13 10 13 13 9 9 11 12 10 6 6 8 9 6 -0 -6 -3 3 5 5 5 4 4 4 5 5 6 6 7 7 8 8 7 6 5 4 3 3 3 3 3 4 4 5 7 9 12 16 23 30 31 28 15 6 6 6 nan
nan 5 5 6 6 6 6 6 6 6 6 6 6 6 6 6 6 6 6 6 6 7 8 8 7 6 5 6 6 7 7 7 7 7 8 9 9 10 10 10 10 10 9 7 8 12 12 14 13 9 7 9 10 10 8 6 6 7 7 4 -2 -5 1 4 5 5 4 4 4 4 5 6 6 6 7 7 7 8 7 7 6 5 4 3 3 3 3 3 4 4 5 6 7 7 14 25 32 37 26 10 7 7 nan
nan 6 5 6 6 7 7 7 7 6 6 7 7 7 7 7 7 6 6 7 7 8 8 8 7 6 5 6 6 7 7 7 7 8 8 9 10 10 11 10 10 9 9 8 9 10 12 13 9 7 7 10 10 9 6 4 4 6 7 3 -3 -2 3 4 5 4 4 4 4 5 5 6 6 6 7 6 7 7 8 8 7 6 5 3 3 3 3 4 4 4 4 5 6 6 7 14 24 34 35 21 12 8 nan
nan 5 6 6 6 7 6 7 7 7 7 7 7 7 7 7 7 7 7 8 8 9 9 8 7 6 6 6 7 7 7 7 8 8 9 10 10 10 10 10 9 9 9 8 7 7 10 15 13 10 10 12 8 5 2 5 7 9 9 2 -2 0 2 3 4 4 4 4 5 5 5 6 7 7 7 6 6 7 7 8 8 7 6 4 4 3 3 4 4 4 4 5 5 5 6 10 17 26 33 29 20 13 nan
nan 5 5 6 7 7 7 6 6 6 7 7 7 7 7 7 7 7 7 9 9 9 8 7 6 6 6 7 7 7 7 8 9 9 10 10 10 10 9 9 9 8 8 7 7 6 13 21 18 13 11 9 4 1 4 10 9 9 7 1 -2 -3 -0 3 4 4 4 4 5 5 6 6 7 7 7 6 6 7 7 8 8 7 6 5 5 4 4 4 4 4 4 4 5 5 6 7 11 17 28 32 26 18 nan
nan 4 5 6 7 7 7 6 6 6 6 7 7 7 7 7 7 7 8 9 9 9 8 7 6 6 7 7 8 8 8 9 10 10 10 10 9 9 8 8 8 7 7 7 6 7 19 27 19 13 11 7 4 2 10 12 8 8 6 -2 -4 -3 1 3 4 4 4 5 5 6 6 6 7 7 7 6 6 7 7 7 7 7 7 7 6 5 4 4 4 4 4 4 4 5 6 7 8 11 21 29 28 24 nan
nan 4 5 6 7 7 6 6 6 6 6 6 7 7 7 7 7 8 9 9 9 8 7 6 6 7 7 8 8 9 9 10 11 11 10 9 9 8 8 7 7 7 6 6 8 12 25 29 20 14 10 6 4 7 13 11 8 10 7 -4 -4 -0 3 3 3 3 4 5 5 6 6 7 7 7 7 7 7 7 7 7 7 7 8 7 7 6 5 5 4 4 4 3 4 4 6 6 6 7 13 22 27 27 nan
nan 4 6 7 7 6 6 6 6 6 6 6 6 6 6 7 7 8 9 9 8 7 6 6 6 7 8 8 9 9 10 11 11 10 9 8 8 8 7 7 6 6 6 9 14 22 33 31 20 12 8 5 7 9 10 9 9 9 -0 -10 -5 1 3 3 3 3 4 5 5 6 6 7 7 7 7 7 7 7 7 7 7 7 7 8 8 7 6 5 5 4 4 3 3 4 5 6 6 5 7 15 22 27 nan
nan 6 7 6 4 5 5 6 6 6 6 6 6 6 6 7 7 8 9 8 7 6 6 6 6 7 8 8 9 10 11 12 11 10 9 8 8 7 7 6 5 6 8 15 26 33 35 24 13 9 8 7 7 7 5 7 8 5 -9 -10 -2 2 3 3 3 3 4 4 5 6 6 7 7 7 7 7 7 7 7 7 7 7 7 7 8 8 7 6 5 5 4 4 3 3 4 5 6 6 5 8 16 23 nan
nan 6 5 4 4 5 5 6 6 6 6 6 6 6 6 7 7 8 8 7 6 6 5 6 6 7 8 8 9 11 12 12 11 9 8 8 7 7 7 6 6 7 13 27 36 32 20 10 8 9 8 8 6 3 5 9 7 -1 -12 -5 1 3 4 4 4 4 4 4 5 5 6 7 7 7 7 7 7 7 7 7 7 7 7 7 8 8 8 7 6 5 5 4 3 3 4 5 5 6 5 6 10 17 nan
nan 4 3 4 5 5 5 5 5 6 6 6 6 6 6 7 8 8 8 7 6 5 5 6 6 7 8 9 10 12 14 12 10 9 8 8 7 7 6 5 7 11 25 36 28 15 5 4 7 8 7 6 6 6 9 10 4 -6 -10 -2 2 3 4 4 4 4 4 4 5 5 6 7 7 7 7 7 7 7 7 7 7 7 7 7 7 8 8 8 7 7 5 4 4 3 3 4 5 6 6 5 7 11 nan
nan 2 3 5 5 5 5 5 5 6 6 6 6 6 6 7 8 8 7 6 5 5 5 5 6 7 8 9 12 17 18 12 11 10 8 7 7 6 5 7 12 21 34 28 13 4 2 6 9 8 6 5 7 8 9 8 -1 -9 -6 1 3 3 4 4 5 5 5 5 5 5 6 6 7 7 8 8 8 7 7 7 7 7 7 7 7 7 8 8 8 8 7 5 5 4 3 4 4 5 6 6 6 7 nan
nan 2 3 4 5 5 5 5 5 6 6 5 6 6 7 8 8 8 7 6 5 5 5 5 6 7 8 10 17 29 23 11 11 9 7 6 7 6 7 12 21 31 29 14 6 2 4 8 10 8 5 5 8 7 7 5 -4 -8 -1 2 3 4 4 4 5 5 5 5 5 5 5 6 6 7 7 8 8 8 7 7 7 7 7 7 7 7 7 8 8 8 8 7 5 4 3 3 4 4 5 6 6 5 nan
nan 2 4 4 5 5 5 5 6 6 6 5 5 6 7 8 8 7 6 6 5 5 4 5 6 8 10 15 23 33 21 9 10 7 4 5 7 9 13 21 26 27 16 5 2 2 6 9 10 8 6 7 8 6 6 3 -3 -4 2 4 4 3 4 4 4 5 5 6 6 5 6 6 6 7 7 8 8 8 8 8 7 7 7 7 7 7 7 8 8 9 9 8 6 5 4 3 3 4 5 5 5 5 nan
nan 5 5 4 5 5 6 6 6 6 6 5 6 8 8 8 8 7 6 6 6 5 5 6 9 12 13 20 27 26 14 7 9 9 6 4 7 11 20 25 21 15 6 2 1 4 8 10 10 8 7 7 6 4 7 3 -2 -1 3 4 4 4 4 4 4 5 6 6 6 6 6 6 6 6 7 7 8 8 8 8 7 7 7 7 7 7 7 7 8 9 9 9 8 6 5 4 3 4 4 5 5 4 nan
nan 6 5 6 6 6 8 9 8 8 7 7 9 11 11 11 10 7 7 8 7 6 5 10 16 17 20 25 21 15 8 7 8 9 7 7 8 13 17 15 10 6 3 2 5 9 12 11 10 9 7 7 6 6 7 0 -4 -1 4 5 4 4 4 4 5 5 6 6 7 6 6 6 6 6 6 7 8 8 8 8 8 8 7 7 7 7 7 7 8 8 9 9 9 8 6 5 4 4 4 5 4 4 nan
nan 6 4 5 7 9 11 12 11 10 6 7 16 19 13 9 9 6 10 13 9 6 8 18 24 20 18 16 11 8 8 8 8 7 7 8 9 9 9 7 6 5 4 6 10 12 12 11 9 8 7 7 8 7 4 -5 -5 1 5 5 5 5 4 5 5 6 6 6 6 7 6 6 6 6 6 7 7 8 9 9 8 8 7 7 7 7 7 7 7 7 8 9 9 9 7 6 5 4 5 5 5 4 nan
nan 7 6 6 7 9 11 11 9 9 2 6 21 21 12 8 7 5 13 15 7 5 11 20 21 15 9 6 6 8 9 7 6 7 7 7 7 7 6 6 6 5 6 8 10 10 9 9 9 8 8 8 8 6 0 -6 -1 4 6 6 6 6 6 6 6 5 6 6 6 6 7 6 6 6 6 7 7 8 9 9 9 8 8 8 7 7 7 7 7 7 8 9 9 9 8 7 6 5 5 5 5 5 nan
nan 7 7 7 7 8 8 8 8 8 0 6 19 15 9 7 6 7 11 10 5 4 9 13 12 10 7 5 6 7 7 4 5 6 7 7 7 6 6 4 4 5 7 7 8 8 8 9 9 9 8 7 7 5 -1 -2 2 4 6 7 7 7 7 6 6 5 5 5 6 6 6 7 7 6 6 7 7 8 8 9 9 9 9 8 8 7 7 7 7 7 7 8 8 9 9 8 7 6 5 4 5 5 nan
nan 6 6 6 6 7 7 8 8 8 4 8 14 11 7 6 6 8 8 7 5 5 6 9 10 9 5 4 5 6 4 3 4 7 8 6 5 5 3 2 4 7 7 6 8 9 9 8 8 8 7 6 6 4 -2 -1 3 5 7 8 8 8 7 7 6 5 5 5 5 6 6 7 7 7 6 6 7 7 8 9 9 9 9 8 8 8 7 7 7 7 7 7 8 9 9 9 8 6 5 4 4 5 nan
nan 7 7 7 7 7 8 8 8 8 7 8 9 7 6 6 7 8 7 6 6 6 7 8 8 6 4 4 5 5 4 5 6 8 7 5 4 5 3 3 6 8 7 7 10 10 9 8 7 7 6 6 7 4 -0 -0 4 6 8 8 8 8 8 7 6 5 5 5 5 6 7 7 7 7 7 7 7 7 8 8 9 9 9 9 8 8 7 7 7 7 7 7 8 9 10 11 9 7 4 3 4 4 nan
nan 7 7 7 7 7 8 8 8 8 7 7 7 6 6 8 8 7 6 6 6 7 6 5 5 5 5 5 6 5 8 10 7 7 7 6 6 7 5 6 8 8 7 10 11 10 7 7 6 6 5 7 7 5 2 1 6 8 8 8 8 8 7 7 6 6 5 5 5 6 7 8 8 8 8 7 7 7 7 8 9 9 9 9 9 8 8 7 7 7 7 7 7 8 10 12 11 9 5 2 3 4 nan
nan 7 6 7 8 8 8 8 7 7 7 8 8 7 7 7 7 6 6 6 6 6 5 5 6 9 9 8 7 8 11 10 8 7 7 9 10 9 6 7 8 7 9 12 10 7 6 6 5 4 5 7 7 8 5 4 6 6 6 7 7 7 7 7 7 6 5 5 6 6 7 8 9 9 8 7 7 7 7 8 9 9 9 9 9 9 8 8 8 7 7 7 7 8 10 11 11 9 6 4 3 3 nan
nan 6 6 7 8 8 8 8 7 7 8 8 8 7 7 6 7 6 6 6 6 6 7 8 10 11 10 9 8 9 10 9 7 5 7 11 10 7 6 7 7 8 12 10 7 5 6 5 4 5 7 8 8 9 5 6 5 3 5 7 7 7 7 7 7 6 5 5 6 7 9 9 9 8 8 7 7 7 7 8 8 9 9 9 9 9 9 8 8 8 7 7 7 7 8 10 10 10 8 6 5 4 nan
nan 7 7 7 7 8 8 8 7 7 8 8 8 7 6 6 6 7 7 7 7 8 8 8 9 8 8 7 7 7 8 7 5 6 9 11 7 5 6 8 8 9 9 6 6 8 7 6 6 8 9 8 9 8 5 5 2 2 6 7 7 7 7 7 7 6 6 6 7 8 9 10 9 8 8 8 7 8 8 8 8 9 9 9 9 9 9 8 8 8 7 7 7 7 7 8 9 11 10 8 6 5 nan
nan 7 7 7 7 8 8 8 7 8 8 8 7 7 6 6 6 6 7 7 8 7 7 7 7 7 7 7 7 7 7 7 8 7 8 8 6 6 8 8 6 6 7 10 12 12 10 8 8 11 11 10 10 8 6 5 3 5 5 6 7 7 8 8 7 7 7 7 8 9 10 10 9 8 8 8 8 9 9 9 9 8 8 8 9 9 9 9 8 8 8 7 7 7 7 7 8 10 11 10 8 6 nan
nan 8 8 8 8 8 8 7 8 8 8 7 7 6 6 6 6 7 7 8 7 7 7 8 8 8 9 8 8 8 8 8 9 7 7 9 8 7 6 5 5 7 11 14 13 11 9 8 10 11 9 7 7 8 9 7 7 8 7 8 8 9 8 8 8 8 8 8 9 10 10 9 9 8 8 9 9 10 9 9 8 8 8 8 8 9 9 8 8 8 8 7 7 7 7 7 7 8 10 10 9 8 nan
nan 8 8 8 8 8 8 8 8 8 7 7 6 6 6 6 7 8 8 8 7 7 7 7 7 7 8 8 8 8 8 8 9 8 8 10 8 7 6 6 8 10 12 12 9 8 8 8 6 5 5 4 6 8 8 7 7 8 10 11 10 10 10 9 9 9 8 9 9 10 10 9 9 9 10 10 10 10 9 8 8 8 8 8 8 8 9 9 9 8 8 8 7 7 7 7 7 7 8 9 10 10 nan
nan 8 8 8 8 8 8 8 8 8 7 6 6 6 6 6 7 8 8 7 7 6 6 6 6 6 7 8 8 8 8 8 8 8 9 9 8 7 5 6 9 11 11 9 7 7 7 5 3 5 5 5 5 5 5 6 7 9 15 15 13 11 10 10 9 9 9 10 10 10 10 10 10 10 11 11 10 10 9 8 8 8 8 8 8 8 8 9 9 9 9 8 8 8 7 7 7 7 7 8 9 10 nan
nan 8 8 8 8 8 7 7 8 8 7 6 6 6 6 6 8 8 8 7 6 6 6 6 7 8 8 8 8 8 8 7 7 7 7 6 6 5 4 7 10 11 10 7 6 7 7 5 6 7 5 4 3 5 7 8 9 12 14 10 10 10 9 10 10 10 10 11 11 11 11 11 11 11 11 10 10 9 8 8 9 8 8 8 8 8 8 9 9 9 9 9 8 8 8 8 7 7 7 7 8 10 nan
nan 8 8 8 8 7 7 8 8 7 6 6 6 6 6 8 9 9 9 8 7 7 7 8 9 9 8 8 8 8 7 7 8 7 6 5 6 6 7 9 10 10 9 8 9 10 8 7 7 6 5 5 6 9 10 10 10 10 7 7 12 14 15 15 15 15 12 12 12 12 12 11 11 11 10 10 9 9 9 9 9 8 8 7 7 8 8 9 9 9 9 9 9 8 8 8 8 8 7 7 8 9 nan
nan 9 8 8 8 7 8 8 7 6 6 7 7 7 8 10 10 9 9 9 7 7 8 9 8 7 7 9 8 8 7 8 9 8 7 8 9 9 8 7 9 10 10 10 11 10 7 7 6 5 5 8 11 13 10 10 9 7 7 13 17 20 23 25 23 18 14 13 12 11 11 10 10 10 10 9 9 9 9 9 8 8 7 7 7 8 8 9 9 9 9 9 9 9 9 9 9 8 8 7 8 8 nan
nan 8 8 8 8 7 8 8 6 5 6 8 8 8 9 9 9 8 8 7 6 7 9 7 5 6 9 10 9 8 7 8 8 8 8 9 9 9 7 8 10 11 10 10 9 7 5 5 6 6 8 10 11 10 11 12 9 7 9 11 14 17 22 23 20 18 17 14 12 11 10 9 9 9 9 9 9 9 9 8 8 7 7 7 7 8 9 9 9 10 10 10 10 9 9 9 9 9 8 8 8 8 nan
nan 9 8 8 7 7 8 7 6 5 7 9 9 9 9 8 8 7 7 7 7 8 9 7 6 7 10 10 8 5 6 8 7 7 7 8 7 8 8 9 10 9 8 7 7 5 4 7 8 8 8 9 9 9 12 11 8 7 8 8 9 10 12 11 12 15 19 19 16 13 10 10 9 9 9 9 9 9 9 8 7 7 7 7 8 8 9 9 10 10 10 10 10 10 10 10 9 9 9 8 8 8 nan
nan 8 8 8 8 8 8 6 5 6 8 9 9 9 8 7 8 8 8 7 7 8 8 7 8 9 9 8 7 5 6 9 8 8 7 7 7 7 7 8 8 8 7 6 6 6 7 8 8 7 8 9 11 12 12 8 6 7 7 8 7 7 7 7 8 11 16 20 20 18 12 11 9 9 8 9 9 9 8 7 7 7 7 8 8 9 9 9 10 10 10 10 10 10 10 9 9 9 9 9 8 8 nan
nan 8 8 8 8 8 7 5 5 8 9 9 9 8 8 7 8 8 7 7 7 8 7 8 8 8 7 7 7 7 8 8 8 7 6 6 7 7 7 7 8 7 6 6 8 8 9 7 6 8 10 11 13 13 10 5 5 7 8 7 5 5 4 3 3 5 10 14 17 18 16 12 10 9 8 9 8 8 7 6 7 7 8 8 9 9 10 10 10 10 10 10 10 10 10 9 9 9 9 9 8 8 nan
nan 8 8 8 8 7 6 5 7 9 9 9 9 8 8 8 7 7 7 9 9 7 7 8 8 8 7 8 8 8 8 7 7 6 6 6 6 7 7 8 7 7 6 6 9 9 8 8 9 11 12 11 10 8 3 3 5 7 8 5 3 1 -1 -1 2 7 8 9 12 15 18 12 11 9 8 8 7 7 6 7 7 8 9 9 10 10 11 10 10 10 10 9 9 10 10 9 9 9 9 9 8 8 nan
nan 8 8 8 8 7 6 6 8 9 9 9 9 8 8 8 7 7 9 10 9 6 6 8 8 8 8 7 8 7 7 7 7 7 6 7 7 7 7 7 7 7 6 9 11 10 9 9 9 10 9 10 8 5 3 6 8 9 9 8 7 6 6 7 11 13 9 9 10 12 14 13 12 9 9 8 8 8 8 8 8 9 9 10 11 11 11 10 9 9 9 9 9 10 10 10 10 10 9 9 9 8 nan
nan 8 8 8 8 7 6 6 8 9 9 9 8 8 8 7 8 8 9 8 7 6 6 7 9 9 8 6 7 7 7 7 7 7 7 8 8 7 7 8 8 8 9 11 11 9 8 7 6 5 7 11 9 7 8 10 10 11 13 15 16 16 15 15 14 12 10 9 9 9 8 12 13 12 11 11 11 10 10 9 9 9 10 11 11 12 11 9 9 8 8 9 10 10 10 10 10 10 10 9 9 8 nan
nan 8 8 8 7 6 5 7 9 10 9 8 8 8 7 7 8 8 8 7 7 7 8 8 8 9 7 6 6 7 7 7 7 7 8 8 7 5 7 10 10 10 10 10 9 8 7 5 4 7 13 12 10 11 14 12 11 13 16 16 16 17 16 15 12 10 10 9 9 8 6 8 12 17 18 17 16 15 13 11 9 9 10 11 12 12 10 9 8 8 8 9 10 11 11 11 11 10 10 9 9 9 nan
nan 9 9 8 7 6 6 8 10 9 9 8 8 8 7 7 8 8 8 7 7 7 8 7 7 7 6 5 5 6 7 8 7 6 7 8 6 6 9 12 10 10 9 9 8 8 6 4 8 13 15 11 11 12 14 12 13 16 16 12 11 12 12 12 11 11 12 12 10 8 6 5 9 15 21 20 22 20 15 11 10 9 10 12 12 11 9 8 8 8 9 10 10 11 11 11 11 10 10 9 9 9 nan
nan 9 8 7 7 6 7 9 10 9 9 8 7 7 7 8 8 7 7 7 6 6 6 6 5 6 4 2 6 8 8 8 7 6 8 9 8 8 9 10 10 9 9 9 8 7 6 8 12 13 10 8 9 11 11 13 17 20 17 14 12 11 11 12 13 14 14 13 11 8 7 7 9 11 15 16 17 15 13 11 10 10 12 13 12 10 8 8 8 8 10 11 11 11 12 11 11 11 10 10 10 10 nan
nan 8 8 7 6 7 8 9 9 9 8 7 7 7 7 8 7 6 7 7 7 6 6 4 5 6 4 6 11 11 9 8 8 8 10 10 8 7 10 12 11 10 9 9 8 6 6 10 11 9 8 9 11 13 13 17 20 20 18 17 15 14 14 16 15 14 14 12 9 7 7 9 11 11 11 10 10 9 10 12 13 13 14 13 11 9 7 7 8 9 11 12 12 12 12 12 11 11 11 10 10 10 nan
nan 9 8 7 7 8 8 8 8 8 7 7 7 7 7 6 5 5 5 7 7 8 7 6 7 8 7 10 12 11 9 8 8 8 9 10 10 10 13 12 11 9 9 9 8 5 6 11 10 9 10 13 15 15 15 15 15 16 15 16 16 17 16 13 12 11 11 8 5 4 5 9 12 13 10 9 8 8 9 12 14 16 16 13 10 8 7 8 9 10 12 12 13 12 12 12 11 11 11 11 10 10 nan
nan 10 9 7 8 8 8 7 7 8 8 8 8 7 6 4 3 2 4 8 9 10 8 7 8 9 9 10 11 10 7 7 7 8 10 11 11 12 12 11 9 9 10 10 9 7 11 14 11 10 12 15 15 13 10 10 10 11 11 12 13 13 11 10 10 11 8 4 4 4 6 10 12 12 9 8 8 8 7 9 12 14 14 12 12 11 11 10 10 10 11 12 12 12 11 11 11 11 11 10 10 10 nan
nan 9 7 7 7 8 7 7 8 9 8 6 5 5 4 3 3 4 9 11 11 10 9 9 8 8 9 11 11 8 6 6 7 10 13 11 10 9 9 11 10 10 10 11 10 10 14 14 12 11 12 13 9 6 6 8 8 8 9 10 10 9 9 12 12 11 7 6 7 8 9 12 12 11 9 8 7 7 7 8 9 10 11 13 15 17 16 15 13 11 10 10 10 10 11 12 12 11 10 10 10 10 nan
nan 7 7 7 7 8 7 7 8 7 4 4 6 8 6 6 9 13 14 10 9 8 8 9 9 9 11 11 10 6 5 6 7 12 12 7 6 5 7 9 10 12 13 10 10 13 16 15 13 12 11 7 3 3 6 8 8 8 8 8 7 7 10 12 11 10 8 9 10 11 13 13 12 9 7 6 6 5 6 7 8 8 10 12 14 14 14 12 9 8 7 9 10 10 12 12 11 10 8 8 10 11 nan
nan 7 7 8 8 8 8 7 7 5 5 10 11 11 10 10 12 13 10 7 8 9 10 9 8 9 10 9 9 6 4 6 8 9 6 5 7 8 10 10 12 12 10 9 13 15 17 15 14 9 5 3 4 7 10 9 8 7 7 6 7 9 11 11 10 10 10 11 12 14 15 14 11 7 5 5 4 5 5 6 7 8 9 9 8 8 8 5 3 1 3 8 9 10 12 12 11 9 7 6 8 11 nan
nan 7 7 8 8 8 8 7 7 7 9 10 9 9 8 8 8 8 6 6 8 9 9 6 5 5 6 8 8 6 6 7 7 8 9 9 10 13 14 13 11 7 5 10 13 14 14 12 8 4 4 7 9 10 9 7 6 6 7 7 10 12 12 10 10 9 9 9 11 13 13 11 9 6 5 6 7 8 7 7 7 8 9 9 9 10 10 6 2 2 8 11 12 13 12 11 10 9 6 5 7 10 nan
nan 6 7 8 8 8 6 5 6 8 9 8 8 8 7 7 7 7 5 6 6 6 6 6 6 6 7 7 7 7 9 8 8 10 9 8 9 10 11 10 7 5 7 11 11 12 9 4 3 5 9 10 11 10 8 7 7 8 7 8 11 12 11 9 9 9 8 9 10 9 9 8 7 5 6 9 11 12 11 11 10 9 8 8 8 8 6 2 3 10 17 21 19 16 10 7 8 9 7 6 8 10 nan
nan 8 9 8 7 6 5 6 7 8 8 9 8 8 7 8 8 6 5 4 4 5 7 9 9 9 9 7 7 6 8 10 11 9 7 7 6 5 6 6 8 11 13 11 10 8 2 -0 6 12 12 10 10 10 9 8 8 7 5 7 11 11 9 8 8 8 8 9 9 8 8 8 7 7 9 12 12 11 11 11 11 10 8 8 7 6 4 5 11 20 25 25 21 14 7 5 8 9 8 8 8 9 nan
nan 9 8 6 5 5 6 7 8 8 9 9 8 8 8 8 7 6 5 5 6 8 10 10 9 9 6 8 8 7 8 11 10 8 9 7 6 5 5 6 8 10 10 9 7 5 -1 2 14 20 12 5 7 8 7 7 7 7 8 12 12 10 8 8 7 8 7 7 8 8 9 8 9 10 13 13 11 10 11 12 12 12 10 9 9 9 10 13 16 18 21 17 13 9 2 4 7 9 9 8 8 9 nan
nan 8 7 6 6 7 7 9 9 9 9 8 7 7 7 7 7 8 8 8 10 10 10 10 9 9 7 8 9 10 7 7 8 10 10 9 9 9 8 5 4 2 2 4 4 5 2 7 16 14 6 4 6 8 8 8 9 10 13 14 12 9 7 7 7 7 6 7 7 8 9 9 10 11 12 11 11 12 13 13 12 11 10 9 9 10 10 10 9 10 12 8 5 2 -1 2 5 8 9 8 8 8 nan
nan 7 7 7 8 9 9 9 9 9 8 6 7 8 8 7 8 9 8 8 8 7 7 9 9 9 10 10 11 11 7 4 7 11 13 13 13 13 10 8 5 3 1 1 1 3 5 10 12 8 4 6 9 11 11 10 12 15 16 14 11 8 6 6 7 7 7 7 8 9 9 10 10 10 10 10 11 12 12 11 10 9 9 10 10 9 7 6 6 7 2 -3 -5 -5 -2 1 5 7 7 8 8 9 nan
nan 7 8 8 9 9 10 9 8 8 6 6 8 9 8 8 8 8 8 7 4 3 7 10 8 8 11 11 12 10 8 7 8 9 14 16 15 14 11 10 8 7 4 2 2 3 5 7 7 6 6 6 8 11 12 11 12 14 14 12 8 6 7 9 9 10 10 9 9 9 9 9 9 9 10 10 11 10 10 9 9 8 9 10 10 9 6 8 9 8 2 0 -1 -1 2 3 4 5 6 7 8 9 nan
nan 8 9 10 10 10 10 9 9 8 6 7 9 10 9 8 8 7 6 4 2 4 9 10 10 11 11 12 11 9 11 12 12 11 12 12 12 11 9 9 10 9 8 8 8 7 6 4 3 4 5 5 6 8 8 10 11 12 11 8 6 8 12 11 11 11 10 9 10 10 10 9 8 9 9 9 9 9 9 9 9 9 9 8 8 8 9 12 13 14 15 14 9 5 4 4 3 4 5 6 7 8 nan
nan nan nan nan nan nan nan nan nan nan nan nan nan nan nan nan nan nan nan nan nan nan nan nan nan nan nan nan nan nan nan nan nan nan nan nan nan nan nan nan nan nan nan nan nan nan nan nan nan nan nan nan nan nan nan nan nan nan nan nan nan nan nan nan nan nan nan nan nan nan nan nan nan nan nan nan nan nan nan nan nan nan nan nan nan nan nan nan nan nan nan nan nan nan nan nan nan nan nan nan nan nan nan
CAPE
17 18 20 18 19 19 19 24 24 24 24 28 30 30 33 35 35 40 45 56 56 63 67 73 77 77 78 74 68 68 62 65 71 71 68 63 63 62 60 50 50 27 10 3 1 1 3 0 nan nan nan nan nan nan nan nan nan nan nan nan nan nan nan nan nan nan 0 5 7 7 4 0 0 0 2 15 15 34 68 134 134 187 222 316 549 549 806 978 1127 1127 1228 1437 1649 1649 1795 1941 1941 2050 1987 1910 1910 2149 2409
16 18 19 20 20 20 21 26 27 27 28 29 33 33 34 34 34 37 41 49 49 56 60 66 73 73 78 74 68 68 66 68 73 73 73 68 68 60 58 55 55 43 16 3 0 0 nan nan nan nan nan nan nan nan nan nan nan nan nan nan nan nan nan nan nan nan 1 7 9 9 5 2 0 0 0 10 10 29 56 87 87 126 159 228 349 349 622 819 950 950 1100 1270 1422 1422 1562 1759 1759 1886 2019 1996 1996 2128 2322
17 20 21 21 22 22 24 28 31 31 33 35 39 39 39 38 38 40 43 48 48 52 58 63 71 71 74 71 65 65 64 69 70 70 74 72 72 63 57 53 53 50 32 9 0 0 nan nan nan nan nan nan nan nan nan nan nan nan nan nan nan nan nan nan nan nan 3 9 10 10 7 3 1 1 1 7 7 26 46 70 70 89 127 162 231 231 419 570 755 755 918 1054 1212 1212 1395 1580 1580 1752 1999 2138 2138 2215 2296
18 22 24 25 25 25 25 29 36 36 39 41 44 44 41 44 44 44 47 51 51 54 56 62 67 67 68 65 61 61 64 69 71 71 70 71 71 67 60 51 51 44 40 22 4 4 nan nan nan nan nan nan nan nan nan nan nan nan nan nan nan nan nan nan 0 0 4 9 11 11 9 6 2 2 1 3 3 19 36 59 59 72 82 116 164 164 239 339 479 479 659 809 974 974 1196 1392 1392 1611 1786 2153 2153 2360 2384
18 22 25 25 26 26 27 32 38 38 42 44 44 44 44 45 45 48 51 54 54 58 60 63 66 66 66 60 59 59 62 68 68 68 69 66 66 62 56 47 47 40 37 31 14 14 nan nan nan nan nan nan nan nan nan nan nan nan nan nan nan nan nan nan 0 0 4 10 12 12 12 9 4 4 1 2 2 11 29 45 45 62 73 81 117 117 152 203 267 267 418 560 704 704 906 1141 1141 1383 1633 2024 2024 2285 2368
14 20 23 24 25 25 27 32 37 37 41 42 43 43 43 46 46 50 55 58 58 61 64 68 70 70 66 61 59 59 61 64 66 66 62 57 57 51 47 45 45 40 34 31 24 24 nan nan nan nan nan nan nan nan nan nan nan nan nan nan nan nan nan nan 0 0 5 13 15 15 14 11 7 7 4 3 3 6 20 33 33 46 64 72 80 80 99 125 169 169 249 358 527 527 675 940 940 1224 1461 1837 1837 2171 2192
10 15 18 21 20 20 23 28 33 33 38 38 40 40 42 46 46 52 55 58 58 61 65 70 69 69 66 62 60 60 60 61 61 61 55 49 49 41 37 37 37 38 35 31 28 28 5 nan nan nan nan nan nan nan nan nan nan nan nan nan nan nan nan nan 1 1 8 16 18 18 17 15 12 12 8 6 6 6 10 23 23 34 53 70 72 72 71 74 92 92 144 232 393 393 532 745 745 995 1281 1624 1624 1862 1996
6 10 13 14 15 15 18 23 26 26 30 32 35 35 37 44 44 49 54 55 55 61 67 70 70 70 63 61 61 61 62 60 56 56 47 38 38 30 27 28 28 31 32 33 28 28 22 nan nan nan nan nan nan nan nan nan nan nan nan nan nan nan nan nan 2 2 12 20 22 22 22 21 17 17 15 11 11 7 6 10 10 24 43 60 73 73 68 62 63 63 77 147 278 278 425 595 595 814 1078 1403 1403 1605 1662
1 4 6 8 9 9 12 16 19 19 21 24 26 26 32 38 38 45 47 53 53 58 65 67 65 65 61 61 62 62 61 59 53 53 41 29 29 22 20 20 20 22 26 27 26 26 27 nan nan nan nan nan nan nan nan nan nan nan nan nan nan nan nan nan 4 4 14 21 25 25 27 26 24 24 21 15 15 8 2 3 3 18 31 48 66 66 68 63 59 59 53 77 176 176 296 454 454 652 879 1170 1170 1404 1473
nan 0 1 2 3 3 7 11 13 13 14 15 19 19 24 32 32 36 39 45 45 53 58 60 57 57 56 59 62 62 61 57 49 49 33 21 21 14 14 15 15 17 19 18 22 22 27 nan nan nan nan nan nan nan nan nan nan nan nan nan nan nan nan 0 7 7 17 23 25 25 28 30 26 26 24 19 19 10 3 4 4 10 24 39 57 57 68 66 61 61 54 61 119 119 243 377 377 504 715 987 987 1247 1406
nan nan nan nan 0 0 2 5 8 8 8 10 13 13 18 24 24 28 31 40 40 46 50 48 46 46 48 53 55 55 55 52 42 42 26 15 15 10 10 12 12 13 13 11 14 14 18 nan nan nan nan nan nan nan nan nan nan nan nan nan nan nan nan 2 10 10 19 26 28 28 32 33 31 31 26 22 22 15 10 7 7 7 18 32 47 47 60 64 61 61 56 51 99 99 183 309 309 426 564 820 820 1079 1325
nan nan nan nan nan nan 0 2 4 4 4 5 9 9 14 19 19 22 25 32 32 40 42 40 38 38 40 43 45 45 43 40 31 31 18 12 12 8 8 9 9 9 8 6 6 6 6 nan nan nan nan nan nan nan nan nan nan nan nan nan nan nan nan 6 15 15 23 30 33 33 35 32 30 30 27 24 24 19 13 10 10 9 12 23 36 36 51 59 59 59 58 54 66 66 135 227 227 327 452 660 660 941 1182
nan nan nan nan nan nan nan 0 1 1 1 2 6 6 11 15 15 17 20 27 27 33 33 31 30 30 33 35 36 36 32 24 14 14 9 8 8 8 9 8 8 6 5 3 1 1 nan nan nan nan nan nan nan nan nan nan nan nan nan nan nan nan 0 10 21 21 29 35 37 37 36 29 27 27 27 28 28 23 18 13 13 10 10 17 27 27 42 52 58 58 58 56 59 59 110 185 185 291 376 510 510 758 1015
nan nan nan nan nan nan nan nan nan nan nan 0 3 3 8 11 11 13 16 22 22 26 26 24 23 23 25 23 21 21 17 8 2 2 3 4 4 7 10 9 9 4 1 0 nan nan nan nan nan nan nan nan nan nan nan nan nan nan nan nan nan nan 1 14 24 24 31 37 39 39 36 29 29 29 29 29 29 25 21 16 16 14 12 13 20 20 32 46 55 55 59 59 55 55 75 133 133 212 309 402 402 602 888
nan nan nan nan nan nan nan nan nan nan nan nan 1 1 5 7 7 8 12 17 17 20 20 18 17 17 16 13 10 10 5 0 nan nan 0 1 1 5 10 9 9 4 1 nan nan nan nan nan nan nan nan nan nan nan nan nan nan nan nan nan nan nan 1 15 29 29 36 38 38 38 36 30 29 29 29 30 30 28 25 22 22 19 15 12 14 14 24 39 49 49 56 62 58 58 65 101 101 171 205 306 306 460 699
nan nan nan nan nan nan nan nan nan nan nan nan 0 0 2 3 3 5 9 14 14 16 15 13 12 12 10 5 2 2 0 nan nan nan nan 0 0 3 7 6 6 3 nan nan nan nan nan nan nan nan nan nan nan nan nan nan nan nan nan nan nan nan 1 17 36 36 44 45 41 41 36 34 31 31 31 31 31 29 27 27 27 22 18 13 12 12 17 30 42 42 52 59 62 62 68 82 82 127 164 247 247 390 616
nan nan nan nan nan nan nan nan nan nan nan nan 0 0 1 1 1 2 6 11 11 12 11 10 8 8 4 1 0 0 nan nan nan nan nan nan nan 1 2 2 2 0 nan nan nan nan nan nan nan nan nan nan nan nan nan nan nan nan nan nan nan nan 2 17 40 40 53 51 44 44 40 37 34 34 32 31 31 30 30 28 28 25 21 17 15 15 13 19 30 30 43 53 61 61 68 71 71 82 105 179 179 327 537
nan nan nan nan nan nan nan nan nan nan nan nan nan nan nan 0 0 1 4 8 8 9 8 6 4 4 0 nan nan nan nan nan nan nan nan nan nan 0 1 0 0 nan nan nan nan nan nan nan nan nan nan nan nan nan nan nan nan 4 5 1 1 1 7 24 39 39 52 54 50 50 44 43 37 37 35 33 33 32 31 31 31 28 24 21 17 17 15 14 22 22 33 45 57 57 70 74 74 67 72 126 126 291 431
nan nan nan nan nan nan nan nan nan nan nan nan nan nan nan nan nan 0 3 5 5 5 4 3 0 0 nan nan nan nan nan nan nan nan nan nan nan nan 0 nan nan nan nan nan nan nan nan nan nan nan nan nan nan nan nan nan nan 16 16 13 13 14 20 33 43 43 51 54 55 55 50 47 42 42 38 34 34 31 32 31 31 30 28 24 21 21 15 12 14 14 26 41 54 54 68 72 72 68 62 89 89 210 337
nan nan nan nan nan nan nan nan nan nan nan nan nan nan nan nan nan nan 0 0 0 nan nan nan nan nan nan nan nan nan nan nan nan nan nan nan nan nan nan nan nan nan nan nan nan nan nan nan nan nan nan nan nan nan nan nan nan 26 40 45 45 44 46 57 55 55 55 55 62 62 65 62 51 51 45 41 41 39 35 33 33 33 31 29 24 24 20 16 12 12 15 29 43 43 58 67 67 69 63 66 66 98 144
nan nan nan nan nan nan nan nan nan nan nan nan nan nan nan nan nan nan nan nan nan nan nan nan nan nan nan nan nan nan nan nan nan nan nan nan nan nan nan nan nan nan nan nan nan nan nan nan nan nan nan nan nan nan nan 0 0 24 38 48 48 48 43 54 71 71 68 62 61 61 69 69 59 59 51 46 46 44 38 36 36 35 33 32 27 27 24 20 18 18 19 24 35 35 53 63 63 69 67 65 65 84 117
nan nan nan nan nan nan nan nan nan nan nan nan nan nan nan nan nan nan nan nan nan nan nan nan nan nan nan nan nan nan nan nan nan nan nan nan nan nan nan nan nan nan nan nan nan nan nan nan nan nan nan nan nan nan nan 11 11 19 30 41 41 47 47 57 84 84 85 71 65 65 68 75 69 69 59 55 55 48 42 40 40 39 40 39 38 38 33 26 20 20 18 21 31 31 45 58 58 66 71 76 76 83 96
nan nan nan nan nan nan nan nan nan nan nan nan nan nan nan nan nan nan nan nan nan nan nan nan nan nan nan nan nan nan nan nan nan nan nan nan nan nan nan nan nan nan nan nan nan nan nan nan nan nan nan nan nan nan nan 8 8 18 25 36 36 48 55 65 98 98 105 84 72 72 65 75 77 77 67 58 58 52 48 46 46 45 46 46 43 43 41 34 25 25 20 20 26 26 37 52 52 63 78 84 84 86 83
nan nan nan nan nan nan nan nan nan nan nan nan nan nan nan nan nan nan nan nan nan nan nan nan nan nan nan nan nan nan nan nan nan nan nan nan nan nan nan nan nan nan nan nan nan nan nan nan nan nan nan nan nan nan nan 9 9 19 24 35 35 48 59 71 97 97 108 99 81 81 72 73 83 83 78 71 71 60 56 52 52 50 51 51 49 49 45 39 28 28 24 21 24 24 29 44 44 58 78 93 93 96 87
nan nan nan nan nan nan nan nan nan nan nan nan nan nan nan nan nan nan nan nan nan nan nan nan nan nan nan nan nan nan nan nan nan nan nan nan nan nan nan nan nan nan nan nan nan nan nan nan nan nan nan nan nan nan nan 9 9 20 24 34 34 45 57 70 88 88 108 109 94 94 82 79 86 86 91 84 84 73 65 55 55 51 53 53 53 53 49 45 38 38 31 23 20 20 23 37 37 56 77 93 93 93 82
nan nan nan nan nan nan nan nan nan nan nan nan nan nan nan nan nan nan nan nan nan nan nan nan nan nan nan nan nan nan nan nan nan nan nan nan nan nan nan nan nan nan nan nan nan nan nan nan nan nan nan nan nan nan nan 11 11 19 23 30 30 40 52 61 73 73 101 111 103 103 90 88 93 93 97 96 96 84 70 60 60 55 55 56 56 56 54 52 46 46 36 25 19 19 20 31 31 52 72 84 84 87 85
nan nan nan nan nan nan nan nan nan nan nan nan nan nan nan nan nan nan nan nan nan nan nan nan nan nan nan nan nan nan nan nan nan nan nan nan nan nan nan nan nan nan nan nan nan nan nan nan nan nan nan nan nan nan nan 4 4 18 21 26 26 33 45 55 63 63 89 107 105 105 97 96 102 102 102 98 98 90 78 68 68 62 61 63 65 65 62 57 51 51 44 31 23 23 21 29 29 45 59 72 72 83 86
nan nan nan nan nan nan nan nan nan nan nan nan nan nan nan nan nan nan nan nan nan nan nan nan nan nan nan nan nan nan nan nan nan nan nan nan nan nan nan nan nan nan nan nan nan nan nan nan nan nan nan nan nan nan nan nan nan 17 20 23 23 29 39 50 59 59 81 93 104 104 104 104 112 112 104 98 98 95 87 79 79 74 70 69 71 71 68 64 56 56 50 40 30 30 24 25 25 40 49 62 62 79 88
nan nan nan nan nan nan nan nan nan nan nan nan nan nan nan nan nan nan nan nan nan nan nan nan nan nan nan nan nan nan nan nan nan nan nan nan nan nan nan nan nan nan nan nan nan nan nan nan nan nan nan nan nan nan nan nan nan 15 19 20 20 25 33 45 55 55 67 79 95 95 110 121 121 121 114 104 104 103 100 88 88 83 78 75 73 73 74 72 65 65 57 48 38 38 29 29 29 34 42 55 55 67 85
nan nan nan nan nan nan nan nan nan nan nan nan nan nan nan nan nan nan nan nan nan nan nan nan nan nan nan nan nan nan nan nan nan nan nan nan nan nan nan nan nan nan nan nan nan nan nan nan nan nan nan nan nan nan nan nan nan 6 17 18 18 19 26 36 45 45 51 69 90 90 116 135 129 129 121 108 108 104 108 103 103 93 82 77 76 76 78 76 72 72 65 56 42 42 35 29 29 30 33 50 50 61 74
nan nan nan nan nan nan nan nan nan nan nan nan nan nan nan nan nan nan nan nan nan nan nan nan nan nan nan nan nan nan nan nan nan nan nan nan nan nan nan nan nan nan nan nan nan nan nan nan nan nan nan nan nan nan nan nan nan nan 15 11 11 13 19 26 35 35 43 64 95 95 123 145 149 149 131 116 116 108 113 111 111 100 88 82 81 81 83 78 76 76 69 59 51 51 42 38 38 36 34 46 46 56 63
nan nan nan nan nan nan nan nan nan nan nan nan nan nan nan nan nan nan nan nan nan nan nan nan nan nan nan nan nan nan nan nan nan nan nan nan nan nan nan nan nan nan nan nan nan nan nan nan nan nan nan nan nan nan nan nan nan nan 1 9 9 7 9 16 26 26 34 62 100 100 139 158 162 162 142 127 127 120 119 118 118 108 95 86 84 84 80 81 79 79 74 65 58 58 49 42 42 36 37 42 42 51 57
nan nan nan nan nan nan nan nan nan nan nan nan nan nan nan nan nan nan nan nan nan nan nan nan nan nan nan nan nan nan nan nan nan nan nan nan nan nan nan nan nan nan nan nan nan nan nan nan nan nan nan nan nan nan nan nan nan nan nan 3 3 6 7 13 20 20 30 53 98 98 134 152 159 159 154 144 144 134 121 115 115 108 99 90 84 84 82 84 81 81 78 70 62 62 56 48 48 38 38 40 40 42 49
nan nan nan nan nan nan nan nan nan nan nan nan nan nan nan nan nan nan nan nan nan nan nan nan nan nan nan nan nan nan nan nan nan nan nan nan nan nan nan nan nan nan nan nan nan nan nan nan nan nan nan nan nan nan nan nan nan nan nan nan nan 2 8 11 18 18 27 45 77 77 119 137 148 148 158 155 155 138 119 109 109 106 106 97 87 87 84 82 84 84 81 77 72 72 65 54 54 42 35 35 35 37 35
nan nan nan nan nan nan nan nan nan nan nan nan nan nan nan nan nan nan nan nan nan nan nan nan nan nan nan nan nan nan nan nan nan nan nan nan nan nan nan nan nan nan nan nan nan nan nan nan nan nan nan nan nan nan nan nan nan nan nan nan nan 1 13 12 12 12 19 33 58 58 93 122 135 135 153 154 154 137 118 110 110 109 113 105 93 93 85 84 83 83 84 83 79 79 76 64 64 54 40 33 33 32 30
nan nan nan nan nan nan nan nan nan nan nan nan nan nan nan nan nan nan nan nan nan nan nan nan nan nan nan nan nan nan nan nan nan nan nan nan nan nan nan nan nan nan nan nan nan nan nan nan nan nan nan nan nan nan nan nan nan nan nan nan nan nan 3 10 8 8 12 25 49 49 84 106 125 125 147 148 148 128 118 112 112 113 115 113 97 97 88 89 89 89 88 89 87 87 84 75 75 61 49 36 36 30 26
nan nan nan nan nan nan nan nan nan nan nan nan nan nan nan nan nan nan nan nan nan nan nan nan nan nan nan nan nan nan nan nan nan nan nan nan nan nan nan nan nan nan nan nan nan nan nan nan nan nan nan nan nan nan nan nan nan nan nan nan nan nan nan nan 1 1 10 26 46 46 73 94 111 111 131 132 132 134 124 119 119 114 115 113 100 100 92 93 96 96 95 91 93 93 90 83 83 69 61 46 46 33 28
nan nan nan nan nan nan nan nan nan nan nan nan nan nan nan nan nan nan nan nan nan nan nan nan nan nan nan nan nan nan nan nan nan nan nan nan nan nan nan nan nan nan nan nan nan nan nan nan nan nan nan nan nan nan nan nan nan nan nan nan nan nan nan nan nan nan 3 35 46 46 61 76 94 94 106 124 124 136 140 134 134 114 110 106 102 102 94 97 101 101 100 102 104 104 98 97 97 88 75 59 59 42 31
nan nan nan nan nan nan nan nan nan nan nan nan nan nan nan nan nan nan nan nan nan nan nan nan nan nan nan nan nan nan nan nan nan nan nan nan nan nan nan nan nan nan nan nan nan nan nan nan nan nan nan nan nan nan nan nan nan nan nan nan nan nan nan nan nan nan nan 15 45 45 58 68 76 76 92 114 114 134 148 134 134 105 99 103 101 101 97 97 100 100 104 107 110 110 110 104 104 96 88 71 71 53 39
nan nan nan nan nan nan nan nan nan nan nan nan nan nan nan nan nan nan nan nan nan nan nan nan nan nan nan nan nan nan nan nan nan nan nan nan nan nan nan nan nan nan nan nan nan nan nan nan nan nan nan nan nan nan nan nan nan nan nan nan nan nan nan nan nan nan nan nan 15 15 61 67 72 72 87 114 114 139 147 127 127 100 87 91 93 93 95 96 100 100 105 105 112 112 114 105 105 98 92 86 86 66 49
nan nan nan nan nan nan nan nan nan nan nan nan nan nan nan nan nan nan nan nan nan nan nan nan nan nan nan nan nan nan nan nan nan nan nan nan nan nan nan nan nan nan nan nan nan nan nan nan nan nan nan nan nan nan nan nan nan nan nan nan nan nan nan nan nan nan nan nan 0 0 51 76 72 72 85 117 117 134 131 109 109 85 79 83 82 82 86 92 102 102 103 102 105 105 106 104 104 100 97 92 92 76 60
nan nan nan nan nan nan nan nan nan nan nan nan nan nan nan nan nan nan nan nan nan nan nan nan nan nan nan nan nan nan nan nan nan nan nan nan nan nan nan nan nan nan nan nan nan nan nan nan nan nan nan nan nan nan nan nan nan nan nan nan nan nan nan nan nan nan nan nan 2 2 29 73 71 71 79 104 104 116 107 86 86 70 66 68 72 72 80 91 101 101 98 98 94 94 98 100 100 99 99 98 98 87 68
nan nan nan nan nan nan nan nan nan nan nan nan nan nan nan nan nan nan nan nan nan nan nan nan nan nan nan nan nan nan nan nan nan nan nan nan nan nan nan nan nan nan nan nan nan nan nan nan nan nan nan nan nan nan nan nan nan nan nan nan nan nan nan nan 0 0 6 2 nan nan nan 0 65 65 70 80 80 79 67 48 48 38 43 59 80 80 95 99 90 90 85 87 94 94 99 104 104 110 109 104 104 94 77
nan nan nan nan nan nan nan nan nan nan nan nan nan nan nan nan nan nan nan nan nan nan nan nan nan nan nan nan nan nan nan nan nan nan nan nan nan nan nan nan nan nan nan nan nan nan nan nan nan nan nan nan nan nan nan nan nan nan nan nan nan nan nan 0 9 9 8 0 nan nan nan nan 0 0 53 68 68 72 45 27 27 24 37 69 95 95 98 96 85 85 81 86 94 94 99 106 106 109 110 105 105 92 75
nan nan nan nan nan nan nan nan nan nan nan nan nan nan nan nan nan nan nan nan nan nan nan nan nan nan nan nan nan nan nan nan 0 0 0 nan nan nan nan nan nan nan nan nan nan nan nan nan nan nan nan nan nan nan nan nan nan nan nan nan nan nan 1 14 22 22 0 nan nan nan nan nan nan nan nan 11 11 0 4 17 17 23 45 79 93 93 94 83 76 76 79 88 97 97 101 103 103 106 108 104 104 90 74
nan nan nan nan nan nan nan nan nan nan nan nan nan nan nan nan nan nan nan nan nan nan nan nan nan nan nan 1 nan nan nan nan 1 1 5 nan nan nan 3 nan nan nan nan nan nan nan nan nan nan nan nan nan nan nan nan 2 2 nan nan nan nan nan 8 14 2 2 nan nan nan nan nan 1 4 4 1 nan nan nan nan 10 10 23 53 83 86 86 82 72 72 72 83 90 96 96 101 105 105 112 109 109 109 96 81
nan nan nan nan nan nan nan nan nan nan nan nan nan nan nan nan nan nan nan nan nan nan nan nan nan nan nan 13 nan nan nan nan nan nan 0 nan nan 0 29 3 3 nan nan nan nan nan nan nan nan nan nan nan nan nan nan 1 1 2 1 2 2 7 nan nan nan nan nan nan nan nan 1 13 12 12 nan nan nan nan nan nan nan 29 62 76 70 70 71 59 62 62 81 95 99 99 107 110 110 116 117 123 123 114 98
nan nan nan nan nan nan nan nan nan nan nan nan nan nan nan nan nan nan nan nan nan nan nan 9 nan nan nan nan nan nan nan nan nan nan nan nan nan nan 1 0 0 nan nan nan nan nan 18 nan nan nan nan nan nan nan nan 3 3 8 8 19 19 nan nan nan nan nan nan nan nan nan nan 10 4 4 nan nan nan nan nan nan nan 20 62 63 58 58 57 44 55 55 78 98 105 105 111 113 113 120 131 138 138 133 118
nan nan nan nan nan nan nan nan nan nan nan nan nan nan nan nan nan nan nan nan nan nan nan 2 8 8 nan nan nan nan nan nan nan nan 0 nan nan 0 nan nan nan nan nan nan nan nan 21 nan nan nan nan nan 3 3 3 nan nan nan nan 0 0 nan nan nan nan nan nan nan nan nan nan 3 nan nan nan nan nan nan nan nan nan 1 29 52 51 51 46 38 44 44 65 93 107 107 112 118 118 132 147 158 158 155 140
nan nan nan nan nan nan nan nan nan nan nan nan nan nan nan nan nan nan nan nan nan nan nan nan nan nan nan nan nan nan nan nan nan nan nan nan nan nan nan nan nan nan nan nan 0 0 0 nan nan nan nan 23 2 2 nan nan nan nan nan 0 0 0 nan nan nan nan nan nan nan nan nan 1 nan nan nan nan nan nan nan nan nan nan 5 5 24 24 21 29 37 37 51 80 96 96 111 125 125 142 157 172 172 169 158
nan nan nan nan nan nan nan nan nan nan nan nan nan nan nan nan nan nan nan nan nan nan nan nan nan nan nan nan nan nan nan nan nan nan nan nan nan nan nan 0 0 1 nan nan 3 3 0 nan nan nan 7 10 nan nan nan nan nan nan nan 0 0 nan nan nan nan nan nan nan nan nan nan nan nan nan nan nan nan nan nan nan nan nan 0 nan nan nan nan nan 35 35 52 73 97 97 112 126 126 148 161 188 188 189 183
nan nan nan nan nan nan nan nan nan nan nan nan nan nan nan nan nan nan nan nan nan nan nan nan nan nan nan nan nan nan nan nan nan nan nan nan nan nan nan 5 5 nan nan 0 0 0 nan nan nan nan 0 nan nan nan nan 0 0 nan nan nan nan nan nan nan nan nan nan nan nan nan 2 nan nan nan nan nan nan nan nan nan nan nan nan nan nan nan 0 13 22 22 50 85 101 101 107 116 116 132 156 201 201 225 207
nan nan nan nan nan nan nan nan nan nan nan nan nan nan nan nan nan nan nan nan nan nan nan nan nan nan nan nan nan nan nan nan nan nan nan nan nan nan nan nan nan nan nan 3 3 3 nan nan nan nan nan nan nan nan 0 0 0 nan nan nan nan nan nan nan nan nan nan 0 7 7 5 nan nan nan nan nan nan nan nan nan nan nan nan nan nan nan nan 8 27 27 42 79 101 101 96 101 101 120 157 218 218 249 235
nan nan nan nan nan nan nan nan nan nan nan nan nan nan nan nan nan nan nan nan nan nan nan 2 nan nan nan nan nan nan nan nan nan nan nan nan nan nan nan nan nan nan 0 0 1 1 nan nan nan nan nan nan nan nan nan nan nan nan nan nan nan nan nan nan nan nan nan nan nan nan nan nan nan nan nan nan nan nan nan nan nan nan nan nan nan nan nan 0 33 33 50 76 82 82 77 92 92 105 152 218 218 257 254
nan nan nan nan nan nan nan nan nan nan nan nan nan nan nan nan nan nan nan nan nan nan nan nan nan nan nan nan nan nan nan nan nan nan nan nan nan nan nan nan nan 8 nan 1 0 0 4 3 2 2 0 nan nan nan nan nan nan nan nan nan nan nan nan nan nan nan nan nan nan nan nan nan nan nan nan nan nan nan nan nan nan nan nan nan nan nan nan 25 38 38 66 83 60 60 47 90 90 95 142 211 211 260 259
nan nan nan nan nan nan nan nan nan nan nan nan nan nan nan nan nan nan nan nan nan nan nan nan nan nan nan nan nan nan nan nan nan nan nan nan nan nan nan nan nan nan nan nan 3 3 10 16 9 9 nan nan nan nan nan nan nan nan nan nan nan nan nan nan nan nan nan nan nan nan nan nan nan nan nan nan nan nan nan nan nan nan nan nan nan nan nan 0 29 29 42 8 25 25 32 73 73 97 135 196 196 244 269
nan nan nan nan nan nan nan nan nan nan nan nan nan nan nan nan nan nan nan nan nan nan nan nan nan nan nan nan nan nan nan nan nan nan nan nan nan nan nan nan nan nan nan 0 11 11 16 20 9 9 0 nan nan nan nan nan nan nan nan nan nan nan nan nan nan nan nan nan nan nan nan nan nan nan nan nan nan nan nan nan nan nan nan nan nan nan nan nan 22 22 21 7 2 2 32 54 54 97 130 179 179 223 259
nan nan nan nan nan nan nan nan nan nan nan nan nan nan nan nan nan nan nan nan nan nan nan nan nan nan nan nan nan nan nan nan nan nan nan nan nan nan nan nan nan nan nan 1 15 15 23 16 12 12 2 nan nan nan nan nan nan nan nan nan nan nan nan nan nan nan nan nan nan nan nan nan nan nan nan nan nan nan nan nan nan nan nan nan nan nan nan nan 36 36 8 9 10 10 36 62 62 91 128 159 159 197 238
nan nan nan nan nan nan nan nan nan nan nan nan nan nan nan nan nan nan nan nan nan nan nan nan nan nan 1 nan nan nan nan nan nan nan nan nan nan nan nan nan nan nan 6 3 7 7 8 14 7 7 4 0 nan nan nan nan nan nan 0 nan nan nan nan nan nan nan nan nan nan nan nan nan nan nan nan nan nan nan nan nan nan nan nan nan nan nan nan 22 56 56 44 58 44 44 35 52 52 76 103 137 137 171 215
nan nan nan nan nan nan nan nan nan nan nan nan nan nan nan nan nan 0 nan nan nan 8 1 nan nan nan nan nan nan nan nan nan nan nan nan nan nan nan nan nan nan nan 0 3 nan nan nan 1 2 2 4 2 nan nan nan nan nan 2 9 nan nan nan nan nan nan nan nan nan nan nan nan nan nan nan nan nan nan nan nan nan nan nan nan nan nan nan nan nan 9 9 46 69 41 41 29 38 38 57 89 124 124 156 187
nan nan nan nan nan nan nan nan nan nan nan nan nan nan nan nan nan nan nan nan nan 1 nan nan nan nan nan nan nan nan nan nan nan nan nan nan nan nan nan nan nan nan 7 nan nan nan nan nan nan nan 2 13 5 5 1 nan nan 14 1 nan nan nan nan nan nan nan nan nan nan nan nan nan nan nan nan nan nan nan nan nan nan nan nan nan nan nan nan nan nan nan nan 14 33 33 23 31 31 49 80 109 109 134 166